[[{"header":{"parameterUnit":"m.s-1","parameterCategory":1,"la1":30.2991,"la2":30.254,"lo1":-89.0895,"lo2":-89.0444,"dy":0.0017,"dx":0.0017,"nx":28,"ny":28,"refTime":"2024-12-24T09:00:00:Z","depth":0,"parameterNumber":2,"parameterNumberName":"U-component_of_WINDS"},"data":[0,0,0,0,0,0,0,0,0,0,0,0,0,0,0,0,0,0,0,0,0,0,0,0,0,0,0,0,0,0,0,0,0,0,0,0,0,0,0,0,0,0,0,0,0,0,0,0,0,0,0,0,0,0,0,0,0,0,-5.3973,-5.3974,0,-5.4029,-5.403,-5.4031,-5.3872,-5.3868,-5.3863,-5.3858,-5.3921,-5.3927,-5.3933,0,0,0,0,0,0,0,0,0,0,0,0,0,-5.3733,-5.3739,-5.3973,-5.3974,-5.3974,-5.4029,-5.403,-5.4031,-5.3873,-5.3867,-5.3861,-5.3856,-5.3919,-5.3926,-5.3933,0,0,0,0,0,0,0,0,0,0,0,0,0,-5.3819,-5.374,-5.3973,-5.3902,-5.3896,-5.4029,-5.403,-5.4031,-5.3875,-5.3867,-5.386,-5.3853,-5.3916,-5.3925,-5.3934,-5.414,0,0,-5.3963,-5.3967,0,0,0,0,0,0,0,0,-5.3814,-5.3828,-5.3912,-5.3907,-5.3901,-5.3936,-5.3968,-5.4068,-5.3876,-5.3883,-5.3858,-5.3849,-5.3932,-5.394,-5.3967,-5.4142,-5.4145,-5.3964,-5.397,-5.3974,-5.3976,0,0,0,0,0,0,0,-5.3808,-5.3824,-5.3995,-5.3913,-5.3907,-5.3869,-5.3873,-5.3987,-5.3948,-5.3882,-5.3871,-5.3879,-5.3928,-5.3958,-5.3967,-5.4146,-5.3964,-5.3972,-5.3978,-5.3981,-5.4495,-5.4502,0,0,0,0,0,0,-5.3811,-5.3821,-5.3993,-5.3997,-5.3838,-5.388,-5.3884,-5.3933,-5.3947,-5.3942,-5.3885,-5.3872,-5.3946,-5.3956,-5.3969,-5.421,-5.3974,-5.3982,-5.3988,-5.4487,-5.4496,-5.4505,0,0,0,0,0,0,-5.3806,-5.3828,-5.3991,-5.3906,-5.3924,-5.3892,-5.3947,-5.3938,-5.3967,-5.3949,-5.3942,-5.3923,-5.394,-5.3955,-5.4098,-5.421,-5.3987,-5.3995,-5.4477,-5.449,-5.4501,-5.4695,0,0,0,0,0,0,-5.38,-5.3827,-5.3904,-5.3909,-5.3929,-5.4119,-5.3954,-5.3944,-5.3983,-5.3966,-5.3982,-5.3978,-5.3936,-5.4085,-5.4108,-5.4219,-5.4002,-5.4467,-5.4483,-5.4497,-5.4679,-5.4712,-5.4741,0,0,0,0,0,-5.3792,-5.3957,-5.3908,-5.393,-5.4023,-5.4126,-5.4137,-5.4084,-5.3993,-5.407,-5.4059,-5.3978,-5.4194,-5.4101,-5.4125,-5.4241,-5.446,-5.4478,-5.4496,-5.4665,-5.4706,-5.4741,0,0,0,0,0,0,-5.3967,-5.3956,-5.3902,-5.4073,-5.4101,-5.4099,-5.4194,-5.4129,-5.4185,-5.4166,-5.4098,-5.4104,-5.426,-5.4264,-5.4161,-5.4441,-5.4312,-5.4336,-5.4432,-5.4471,-5.4502,-5.4497,-5.401,0,0,0,0,0,-5.4025,-5.4108,-5.4094,-5.4246,-5.4263,-5.4227,-5.427,-5.4226,-5.4253,-5.4265,-5.4263,-5.4295,-5.4369,-5.442,-5.4488,-5.4679,-5.4681,-5.477,-5.4802,-5.4828,-5.4849,-5.4951,-5.4991,-5.4564,-5.4564,-5.4564,0,0,-5.4146,-5.4151,-5.4207,-5.4282,-5.4298,-5.4387,-5.4238,-5.4338,-5.4404,-5.428,-5.4414,-5.4416,-5.4446,-5.4614,-5.4688,-5.4623,-5.4968,-5.4851,-5.4871,-5.4879,-5.4974,-5.5015,-5.5051,-5.4577,-5.4574,-5.4572,0,0,-5.4413,-5.4424,-5.4552,-5.4572,-5.4599,-5.4574,-5.4606,-5.4613,-5.4609,-5.4742,-5.4652,-5.473,-5.486,-5.4886,-5.4916,-5.5195,-5.5123,-5.5219,-5.5382,-5.5483,-5.5517,-5.5546,-5.5647,-5.5683,-5.524,-5.5241,-5.5241,0,-5.456,-5.4689,-5.4627,-5.4733,-5.4769,-5.4661,-5.4791,-5.4814,-5.4863,-5.4891,-5.4817,-5.4979,-5.4992,-5.5165,-5.5233,-5.5261,-5.5296,-5.5216,-5.5517,-5.5546,-5.5572,-5.5667,-5.5705,-5.5252,-5.5251,-5.525,-5.5249,0,-5.487,-5.496,-5.5061,-5.511,-5.5157,-5.5276,-5.5233,-5.5289,-5.5242,-5.5226,-5.5364,-5.5376,-5.5445,-5.5483,-5.5438,-5.565,-5.5609,-5.5528,-5.5396,-5.5626,-5.5714,-5.5749,-5.5269,-5.5265,-5.5261,-5.5258,0,0,-5.5246,-5.526,-5.5298,-5.532,-5.5342,-5.5412,-5.5527,-5.5592,-5.5642,-5.5681,-5.5776,-5.5889,-5.5814,-5.5848,-5.5806,-5.5894,-5.6115,-5.5801,-5.5801,-5.586,-5.6352,-5.6413,-5.6456,-5.6068,-5.6074,-5.608,-5.6349,0,-5.5509,-5.5703,-5.5652,-5.5846,-5.593,-5.5829,-5.5928,-5.5955,-5.5943,-5.6014,-5.6001,-5.6083,-5.5977,-5.5997,-5.608,-5.6071,-5.6213,-5.6051,-5.6157,-5.6162,-5.6153,-5.6502,-5.6567,-5.6821,-5.6383,-5.6389,-5.6393,0,-5.5841,-5.5891,-5.6094,-5.6104,-5.6137,-5.6228,-5.6285,-5.6353,-5.6382,-5.6367,-5.6407,-5.6347,-5.6461,-5.633,-5.6488,-5.6378,-5.6419,-5.6422,-5.643,-5.6438,-5.6291,-5.652,-5.69,-5.6939,-5.6447,-5.6442,-5.6438,0,-5.6097,-5.6215,-5.6351,-5.6373,-5.6388,-5.6454,-5.6464,-5.6484,-5.6528,-5.6579,-5.6607,-5.6671,-5.6707,-5.6759,-5.6719,-5.6627,-5.6884,-5.6749,-5.6877,-5.6878,-5.6935,-5.6932,-5.7328,-5.6962,-5.6961,-5.6961,-5.696,0,-5.6396,-5.6524,-5.6466,-5.6551,-5.6692,-5.6632,-5.6774,-5.6772,-5.6792,-5.6876,-5.6793,-5.6873,-5.6815,-5.6892,-5.6861,-5.6997,-5.7014,-5.7007,-5.6997,-5.7014,-5.7016,-5.704,-5.7022,-5.6971,-5.6968,-5.6967,-5.6965,0,-5.6705,-5.6671,-5.6813,-5.6816,-5.682,-5.6924,-5.6927,-5.7006,-5.6989,-5.7096,-5.7117,-5.7091,-5.7176,-5.7141,-5.7232,-5.7212,-5.7387,-5.7354,-5.7377,-5.7368,-5.7499,-5.7487,-5.7924,-5.7979,-5.7578,-5.7581,-5.7585,0,-5.6897,-5.6993,-5.7007,-5.7056,-5.7071,-5.7152,-5.7196,-5.7142,-5.7192,-5.7232,-5.7307,-5.7385,-5.7444,-5.7586,-5.7576,-5.7646,-5.7614,-5.7763,-5.7624,-5.7639,-5.7617,-5.7612,-5.7622,-5.779,-5.7795,-5.7799,-5.7802,0,-5.7244,-5.7223,-5.7288,-5.735,-5.7404,-5.745,-5.7489,-5.7535,-5.7483,-5.7543,-5.7629,-5.7675,-5.7768,-5.7847,-5.7909,-5.7921,-5.7855,-5.7846,-5.7879,-5.7897,-5.7907,-5.7904,-5.7453,-5.7836,-5.7832,-5.783,-5.7828,-5.7827,-5.75,-5.7581,-5.7604,-5.768,-5.7704,-5.7743,-5.7817,-5.7809,-5.7879,-5.7949,-5.7914,-5.8014,-5.8042,-5.8118,-5.814,-5.8218,-5.816,-5.8209,-5.8221,-5.8234,-5.8251,-5.7895,-5.823,-5.8229,-5.8228,-5.8227,-5.8226,0,-5.7842,-5.7852,-5.7923,-5.798,-5.8041,-5.7972,-5.8012,-5.8068,-5.8157,-5.8187,-5.8248,-5.8347,-5.8424,-5.8421,-5.8492,-5.8556,-5.8528,-5.8577,-5.8572,-5.8576,-5.8298,-5.8262,-5.8599,-5.8599,-5.8599,-5.8599,-5.8599,-5.8599,-5.8028,-5.8161,-5.8144,-5.8289,-5.8298,-5.8394,-5.8424,-5.846,-5.8484,-5.8598,-5.8661,-5.8658,-5.8676,-5.8748,-5.8817,-5.8814,-5.8844,-5.8905,-5.8892,-5.8632,-5.8595,-5.856,-5.8526,-5.8912,-5.8913,-5.9162,-5.9165,-5.9166]},{"header":{"parameterUnit":"m.s-1","parameterCategory":1,"la1":30.2991,"la2":30.254,"lo1":-89.0895,"lo2":-89.0444,"dy":0.0017,"dx":0.0017,"nx":28,"ny":28,"refTime":"2024-12-24T09:00:00:Z","depth":0,"parameterNumber":3,"parameterNumberName":"V-component_of_WINDS"},"data":[0,0,0,0,0,0,0,0,0,0,0,0,0,0,0,0,0,0,0,0,0,0,0,0,0,0,0,0,0,0,0,0,0,0,0,0,0,0,0,0,0,0,0,0,0,0,0,0,0,0,0,0,0,0,0,0,0,0,-2.4162,-2.4161,0,-2.4112,-2.4111,-2.4111,-2.4052,-2.4051,-2.405,-2.4049,-2.3998,-2.3998,-2.3997,0,0,0,0,0,0,0,0,0,0,0,0,0,-2.4206,-2.4205,-2.4162,-2.4161,-2.4161,-2.4112,-2.4111,-2.4111,-2.4052,-2.4051,-2.405,-2.4049,-2.3999,-2.3998,-2.3997,0,0,0,0,0,0,0,0,0,0,0,0,0,-2.4174,-2.4205,-2.4162,-2.4125,-2.4122,-2.4112,-2.4111,-2.411,-2.4052,-2.4051,-2.4049,-2.4048,-2.3999,-2.3998,-2.3997,-2.402,0,0,-2.3995,-2.3995,0,0,0,0,0,0,0,0,-2.4176,-2.4173,-2.4131,-2.4128,-2.4124,-2.4087,-2.4108,-2.408,-2.4052,-2.4078,-2.4049,-2.4047,-2.4029,-2.4026,-2.4019,-2.4018,-2.4015,-2.3995,-2.3994,-2.3994,-2.3994,0,0,0,0,0,0,0,-2.4178,-2.4175,-2.4142,-2.4131,-2.4126,-2.4111,-2.4105,-2.4103,-2.4062,-2.4076,-2.4072,-2.4067,-2.4026,-2.402,-2.4018,-2.4015,-2.3995,-2.3994,-2.3994,-2.3994,-2.4027,-2.4028,0,0,0,0,0,0,-2.4186,-2.4177,-2.4144,-2.4141,-2.4147,-2.4112,-2.4105,-2.41,-2.4062,-2.4055,-2.4068,-2.4064,-2.4022,-2.4019,-2.4016,-2.4038,-2.3994,-2.3993,-2.3993,-2.4026,-2.4027,-2.4029,0,0,0,0,0,0,-2.4187,-2.4184,-2.4146,-2.4157,-2.4151,-2.4112,-2.4107,-2.41,-2.4093,-2.4055,-2.4048,-2.4069,-2.4021,-2.4017,-2.4019,-2.4035,-2.3993,-2.3992,-2.4024,-2.4026,-2.4028,-2.4084,0,0,0,0,0,0,-2.4189,-2.4184,-2.4193,-2.4158,-2.4151,-2.415,-2.4108,-2.41,-2.4092,-2.4086,-2.4054,-2.4048,-2.4019,-2.402,-2.4018,-2.4034,-2.3992,-2.4022,-2.4025,-2.4027,-2.4081,-2.4088,-2.4094,0,0,0,0,0,-2.4191,-2.4211,-2.4194,-2.419,-2.4161,-2.4151,-2.4147,-2.4114,-2.4094,-2.4101,-2.4077,-2.4049,-2.4034,-2.4021,-2.4018,-2.4034,-2.4021,-2.4024,-2.4027,-2.4078,-2.4087,-2.4094,0,0,0,0,0,0,-2.425,-2.4206,-2.4186,-2.4196,-2.4178,-2.4141,-2.415,-2.4125,-2.4112,-2.4107,-2.4067,-2.406,-2.4067,-2.405,-2.4036,-2.4053,-2.4023,-2.4026,-2.4063,-2.4071,-2.4078,-2.4081,-2.3991,0,0,0,0,0,-2.4264,-2.426,-2.4222,-2.4234,-2.4226,-2.419,-2.4185,-2.416,-2.414,-2.4132,-2.4108,-2.4089,-2.4079,-2.4074,-2.4064,-2.4078,-2.407,-2.4087,-2.4094,-2.41,-2.4102,-2.4107,-2.4114,-2.4038,-2.4038,-2.4038,0,0,-2.4293,-2.4269,-2.4269,-2.4246,-2.4228,-2.4225,-2.4184,-2.4182,-2.4178,-2.4132,-2.4132,-2.4113,-2.4089,-2.4097,-2.4099,-2.4084,-2.4121,-2.4104,-2.4109,-2.4108,-2.4111,-2.4118,-2.4124,-2.4041,-2.404,-2.404,0,0,-2.4344,-2.4326,-2.4333,-2.4317,-2.4291,-2.4267,-2.4269,-2.4236,-2.4222,-2.4221,-2.4185,-2.4181,-2.4166,-2.415,-2.414,-2.4184,-2.4157,-2.4182,-2.4216,-2.4221,-2.4227,-2.4232,-2.4246,-2.4252,-2.4184,-2.4185,-2.4185,0,-2.4384,-2.4377,-2.4341,-2.434,-2.4331,-2.4288,-2.4295,-2.428,-2.4253,-2.4247,-2.423,-2.421,-2.4191,-2.4194,-2.4204,-2.4198,-2.4198,-2.4185,-2.4229,-2.4234,-2.4238,-2.4251,-2.4257,-2.4188,-2.4187,-2.4187,-2.4187,0,-2.4426,-2.4421,-2.4431,-2.4404,-2.4396,-2.44,-2.4364,-2.4359,-2.4336,-2.4313,-2.4312,-2.4288,-2.4271,-2.427,-2.4248,-2.4269,-2.426,-2.4237,-2.4206,-2.4249,-2.426,-2.4265,-2.4192,-2.4191,-2.419,-2.4189,0,0,-2.4513,-2.4466,-2.447,-2.4457,-2.4425,-2.4421,-2.4422,-2.4405,-2.4401,-2.4384,-2.4383,-2.4371,-2.4349,-2.4338,-2.4313,-2.4317,-2.4352,-2.4293,-2.4292,-2.4304,-2.4372,-2.4389,-2.4395,-2.4334,-2.4335,-2.4335,-2.4374,0,-2.4557,-2.4556,-2.4524,-2.4532,-2.4527,-2.4485,-2.4486,-2.4466,-2.4445,-2.4437,-2.4413,-2.4405,-2.4377,-2.4369,-2.4372,-2.4347,-2.4365,-2.4344,-2.4332,-2.4332,-2.4338,-2.4402,-2.442,-2.4457,-2.4378,-2.4379,-2.4379,0,-2.4609,-2.4593,-2.4601,-2.4568,-2.4564,-2.4566,-2.4547,-2.454,-2.4516,-2.45,-2.4487,-2.4458,-2.4456,-2.4428,-2.4424,-2.4411,-2.4404,-2.4391,-2.4391,-2.4388,-2.4358,-2.4399,-2.4468,-2.4474,-2.4386,-2.4386,-2.4385,0,-2.467,-2.4651,-2.4653,-2.4643,-2.4605,-2.4606,-2.459,-2.4565,-2.4557,-2.454,-2.4534,-2.4518,-2.4509,-2.4497,-2.4464,-2.4447,-2.4463,-2.4433,-2.4449,-2.445,-2.4454,-2.4454,-2.4522,-2.4451,-2.4451,-2.4451,-2.4451,0,-2.4722,-2.4728,-2.468,-2.4681,-2.4686,-2.4648,-2.4654,-2.4634,-2.4611,-2.4607,-2.4571,-2.4568,-2.4525,-2.4517,-2.4492,-2.4491,-2.4488,-2.4474,-2.4467,-2.4477,-2.4478,-2.4471,-2.4467,-2.4453,-2.4452,-2.4452,-2.4452,0,-2.4791,-2.4759,-2.4758,-2.4721,-2.4712,-2.4717,-2.4685,-2.4684,-2.466,-2.4655,-2.4652,-2.4614,-2.4603,-2.4569,-2.4549,-2.4532,-2.4538,-2.4526,-2.4546,-2.4541,-2.4559,-2.4557,-2.4624,-2.463,-2.4557,-2.4558,-2.4559,0,-2.4826,-2.483,-2.4793,-2.4787,-2.4773,-2.4765,-2.4755,-2.4718,-2.471,-2.4683,-2.4685,-2.467,-2.4656,-2.4639,-2.461,-2.4594,-2.458,-2.4604,-2.4577,-2.4586,-2.4578,-2.4578,-2.4578,-2.461,-2.4611,-2.4612,-2.4612,0,-2.4891,-2.4875,-2.4863,-2.4846,-2.4836,-2.482,-2.4803,-2.48,-2.4758,-2.4751,-2.4738,-2.4727,-2.4706,-2.4691,-2.4671,-2.4653,-2.4626,-2.4621,-2.4624,-2.4633,-2.4644,-2.4637,-2.4561,-2.462,-2.4619,-2.4618,-2.4618,-2.4618,-2.4943,-2.4944,-2.4918,-2.4906,-2.4888,-2.4872,-2.4869,-2.4844,-2.4833,-2.4813,-2.4792,-2.4781,-2.4756,-2.4725,-2.4709,-2.47,-2.4685,-2.469,-2.4691,-2.4692,-2.4696,-2.4647,-2.4696,-2.4696,-2.4696,-2.4696,-2.4695,0,-2.5005,-2.4986,-2.4976,-2.4952,-2.4942,-2.4917,-2.4895,-2.4889,-2.488,-2.4859,-2.4846,-2.483,-2.4816,-2.4785,-2.4767,-2.4765,-2.4752,-2.4762,-2.4761,-2.4757,-2.4711,-2.4709,-2.4773,-2.4773,-2.4773,-2.4773,-2.4773,-2.4773,-2.5037,-2.5036,-2.5016,-2.5006,-2.4986,-2.4976,-2.4966,-2.495,-2.4933,-2.4918,-2.4905,-2.4885,-2.4859,-2.4839,-2.4824,-2.4816,-2.481,-2.4824,-2.4811,-2.4768,-2.4761,-2.4754,-2.4752,-2.4823,-2.4824,-2.4858,-2.4858,-2.4859]}]]